Gage, OK

7:28 PM CDT on September 30, 2016 (GMT -0500)
Gage

Weather History for KGAG - March, 2013

Change the Weather History Date:

Tuesday, March 26, 2013

  Actual Average Record
Temperature  
Mean Temperature 36 °F -  
Max Temperature 57 °F 64 °F 91 °F (1956)
Min Temperature 14 °F 37 °F 9 °F (1955)
Degree Days  
Heating Degree Days 30    
Moisture  
Dew Point 16 °F    
Average Humidity 50    
Maximum Humidity 88    
Minimum Humidity 20    
Precipitation  
Precipitation 0.00 in - - ()
Sea Level Pressure  
Sea Level Pressure 30.30 in    
Wind  
Wind Speed 9 mph (SSW)    
Max Wind Speed 31 mph    
Max Gust Speed 37 mph    
Visibility 10 miles    
Events      
Averages and records for this station are not official NWS values.
T = Trace of Precipitation, MM = Missing Value Source: NWS Daily Summary

Daily Weather History Graph

Daily Weather History Graph

Search for Another Location

Airport or City:

Trip Planner

Search our weather history database for the weather conditions in past years. The results will help you decide how hot, cold, wet, or windy it might be!

Date:

Astronomy

Mar. 26, 2013 Rise Set
Actual Time 7:33 AM CDT 7:56 PM CDT
Civil Twilight 7:07 AM CDT 8:22 PM CDT
Nautical Twilight 6:37 AM CDT 8:52 PM CDT
Astronomical Twilight 6:06 AM CDT 9:23 PM CDT
Moon 7:34 PM CDT (3/26) 6:50 AM CDT (3/26)
Length of Visible Light 13h 14m
Length of Day
12h 22m
Waxing Gibbous, 99% of the Moon is Illuminated
Mar 26
Waxing Gibbous
Mar 27
Full
Apr 2
Last Quarter
Apr 10
New
Apr 18
First Quarter

Hourly Weather History & Observations

Time (CDT) Temp. Windchill Dew Point Humidity Pressure Visibility Wind Dir Wind Speed Gust Speed Precip Events Conditions
12:53 AM 21.0 °F - 16.0 °F 81% 30.44 in 10.0 mi Calm Calm - N/A   Clear
1:53 AM 21.9 °F - 14.0 °F 72% 30.43 in 10.0 mi Calm Calm - N/A   Clear
2:53 AM 19.9 °F 13.4 °F 14.0 °F 78% 30.44 in 10.0 mi West 4.6 mph - N/A   Clear
3:53 AM 18.0 °F 12.7 °F 12.9 °F 81% 30.42 in 10.0 mi North 3.5 mph - N/A   Clear
4:53 AM 18.0 °F 11.1 °F 14.0 °F 84% 30.43 in 10.0 mi SW 4.6 mph - N/A   Clear
5:53 AM 15.1 °F 5.2 °F 12.0 °F 88% 30.43 in 10.0 mi SSW 6.9 mph - N/A   Clear
6:53 AM 14.0 °F 6.5 °F 10.9 °F 88% 30.43 in 10.0 mi West 4.6 mph - N/A   Clear
7:53 AM 16.0 °F - 12.9 °F 88% 30.44 in 10.0 mi Calm Calm - N/A   Clear
8:53 AM 21.9 °F 17.2 °F 17.1 °F 82% 30.45 in 10.0 mi WSW 3.5 mph - N/A   Clear
9:53 AM 30.9 °F 27.5 °F 19.9 °F 64% 30.43 in 10.0 mi SSW 3.5 mph - N/A   Clear
10:53 AM 39.2 °F 33.0 °F 15.8 °F 39% 30.36 in 10.0 mi South 9.2 mph - N/A   Clear
11:53 AM 43.0 °F 35.7 °F 17.1 °F 35% 30.39 in 10.0 mi SW 15.0 mph - N/A   Clear
12:53 PM 48.9 °F - 18.0 °F 29% 30.35 in 10.0 mi SSW 19.6 mph 24.2 mph N/A   Clear
1:53 PM 51.1 °F - 18.0 °F 27% 30.29 in 10.0 mi South 17.3 mph 26.5 mph N/A   Clear
2:53 PM 54.0 °F - 18.0 °F 24% 30.25 in 10.0 mi South 23.0 mph 26.5 mph N/A   Clear
3:53 PM 57.0 °F - 16.0 °F 20% 30.20 in 10.0 mi SSW 23.0 mph 31.1 mph N/A   Clear
4:53 PM 57.0 °F - 17.1 °F 21% 30.17 in 10.0 mi South 19.6 mph 28.8 mph N/A   Clear
5:53 PM 57.0 °F - 16.0 °F 20% 30.14 in 10.0 mi South 23.0 mph 29.9 mph N/A   Clear
6:53 PM 55.9 °F - 16.0 °F 21% 30.13 in 10.0 mi South 23.0 mph 27.6 mph N/A   Clear
7:53 PM 51.1 °F - 17.1 °F 26% 30.13 in 10.0 mi SSE 18.4 mph 26.5 mph N/A   Clear
8:53 PM 48.0 °F - 19.0 °F 32% 30.12 in 10.0 mi SSE 16.1 mph 25.3 mph N/A   Clear
9:53 PM 46.0 °F 38.5 °F 19.0 °F 34% 30.11 in 10.0 mi SSE 19.6 mph - N/A   Clear
10:53 PM 46.0 °F 37.6 °F 18.0 °F 33% 30.08 in 10.0 mi South 24.2 mph 34.5 mph N/A   Clear
11:53 PM 46.0 °F 36.5 °F 18.0 °F 33% 30.05 in 10.0 mi South 31.1 mph 36.8 mph N/A   Clear